Theta_e
342 342 340 343 344 338 342 339 342 345 342 338 337 338 337 339 342 344 344 345 346 346 343 344 346 347 348 348 347 346 347 347
342 340 339 341 338 343 336 347 348 344 344 343 338 339 337 339 341 343 343 344 345 343 343 345 346 347 349 349 349 348 349 349
340 340 342 341 340 336 335 339 346 343 338 334 336 336 337 339 341 342 342 342 344 342 344 345 346 347 348 347 347 347 349 347
341 334 336 338 338 337 340 344 341 337 340 332 334 333 337 340 342 342 343 343 343 343 344 345 346 348 349 348 345 345 347 347
337 336 336 339 339 336 336 337 343 342 338 335 334 333 336 339 341 342 343 343 343 343 344 345 346 348 350 350 349 346 346 346
332 336 336 340 341 340 339 342 342 340 339 338 338 335 334 338 340 342 342 342 342 343 344 345 346 348 349 350 351 351 348 347
318 328 336 338 341 342 341 339 342 339 342 337 336 335 335 339 340 340 342 342 341 344 344 345 345 347 349 350 350 352 352 352
319 318 332 340 339 342 342 339 339 339 340 335 337 337 334 337 339 340 341 341 341 344 344 344 345 347 348 349 350 352 353 354
320 321 331 340 339 340 340 339 340 343 340 335 335 335 335 337 339 340 340 341 342 343 344 345 345 347 347 349 350 351 353 354
317 331 341 330 333 338 337 339 339 339 337 336 337 339 339 338 339 340 340 342 342 342 344 345 346 347 348 349 350 351 352 354
319 328 328 324 333 338 338 339 337 339 339 337 338 336 336 337 338 341 341 342 343 342 343 345 346 346 347 348 350 352 354 355
314 322 327 325 329 337 334 340 335 337 337 336 335 336 334 338 338 339 341 341 342 344 343 344 346 346 347 348 350 352 354 357
316 320 321 320 321 337 341 337 336 337 337 337 337 338 340 339 340 340 340 341 342 343 342 344 346 345 347 348 350 353 356 358
317 321 322 323 330 337 329 329 332 333 334 337 339 339 340 340 339 339 339 341 341 343 342 343 345 345 346 349 351 355 358 358
317 319 320 324 325 325 327 327 327 329 329 333 337 338 340 339 339 338 339 340 342 342 342 343 345 345 346 350 354 357 358 355
324 322 322 327 326 330 331 330 333 333 332 334 337 338 339 339 338 338 339 341 342 342 341 342 344 345 348 351 356 358 356 341
321 322 326 327 327 330 331 335 335 334 333 333 337 338 338 339 339 339 340 343 343 340 341 342 344 347 350 354 357 358 352 328
322 321 319 319 323 328 325 332 329 331 335 333 333 338 339 340 340 340 341 345 342 341 342 343 345 349 352 356 357 356 342 326
314 314 316 316 317 324 324 326 324 328 334 335 330 336 338 340 341 342 344 343 340 340 342 343 345 348 352 355 357 354 331 324
Wind_Speed
4 4 4 5 3 5 6 2 2 4 6 9 9 6 6 12 20 24 26 26 28 27 23 17 20 18 16 14 16 16 13 15
3 6 8 3 9 3 3 2 5 5 5 7 4 8 4 10 20 23 23 23 27 23 21 19 18 17 13 14 14 14 14 14
5 6 10 2 1 5 5 4 4 2 6 7 9 7 11 13 24 24 23 23 27 20 18 17 16 15 12 11 13 13 13 13
10 4 6 1 6 6 5 5 2 2 6 4 7 9 18 20 24 23 21 22 24 20 19 18 16 16 13 11 12 13 13 13
6 6 2 5 5 4 6 3 6 4 5 3 4 6 14 23 23 22 24 24 25 23 21 18 17 18 18 15 13 12 13 13
10 8 5 6 6 6 7 4 5 6 3 4 3 6 10 16 25 27 27 27 26 25 23 21 18 18 20 19 17 14 13 14
5 6 7 7 9 13 9 8 7 7 10 8 7 9 19 27 26 28 30 30 28 30 25 22 20 20 21 20 19 16 14 13
4 6 10 4 10 17 16 2 7 4 6 6 10 10 11 21 27 32 34 35 32 31 27 25 24 22 22 22 19 18 16 14
4 5 5 5 14 13 10 6 7 7 11 5 4 9 18 26 30 35 39 37 34 35 30 27 27 26 24 22 19 20 20 18
3 2 5 8 7 18 19 14 14 3 6 13 11 16 21 29 34 36 40 41 37 34 32 30 28 27 25 23 21 21 21 20
3 3 5 5 5 10 8 13 13 14 8 14 11 9 10 26 34 37 41 43 41 36 33 31 30 29 26 25 23 21 20 18
3 4 6 7 4 23 6 12 7 13 7 11 14 4 5 25 28 36 41 46 44 39 35 33 31 30 29 28 25 22 19 18
3 4 7 8 6 16 10 9 21 19 13 23 7 16 21 25 28 32 39 42 44 39 37 33 32 30 31 29 27 23 20 18
3 5 8 3 2 7 8 24 18 20 13 18 30 24 22 21 31 38 42 43 40 43 39 36 34 32 33 32 27 23 21 20
8 6 3 9 12 12 15 17 19 25 27 15 22 31 29 28 28 39 44 45 42 44 40 37 36 36 34 32 28 26 24 22
2 4 2 17 6 21 26 28 29 23 23 18 23 30 35 30 35 42 44 46 44 46 41 40 39 37 33 30 29 27 25 26
6 9 15 6 17 28 32 27 29 30 26 21 18 28 35 33 39 41 45 46 48 46 42 42 40 37 33 32 31 29 27 29
4 0 3 11 20 30 38 30 38 38 35 23 19 29 33 39 39 42 47 46 45 47 44 44 40 37 35 35 32 31 31 32
19 26 31 38 37 37 27 35 41 41 32 31 20 26 36 41 39 42 45 46 49 49 46 45 42 40 38 36 35 34 34 34
Wind_Direction
146 129 115 182 150 165 106 40 358 233 283 292 243 267 194 170 181 196 208 207 206 204 204 207 216 216 218 214 220 219 215 213
124 101 49 156 149 95 16 206 270 276 273 246 280 211 190 157 178 192 200 201 203 206 202 208 212 214 219 221 220 217 217 224
121 208 169 136 172 63 117 141 203 286 268 214 230 191 179 187 188 192 194 195 196 197 197 209 209 211 209 209 211 210 214 214
207 201 174 198 164 154 135 196 211 146 277 288 224 191 181 182 189 192 187 189 191 193 198 203 199 200 198 198 201 208 212 215
348 350 75 207 162 130 101 75 184 154 276 318 34 176 198 177 188 187 188 189 196 197 197 190 190 205 200 192 204 212 216 217
209 212 159 182 183 180 128 133 174 214 243 247 251 209 204 194 188 190 191 188 195 198 200 195 193 203 211 214 218 218 218 221
259 246 179 190 181 181 190 193 181 200 202 242 203 204 212 198 190 193 192 190 199 201 201 198 198 203 214 220 222 222 220 218
262 254 192 227 212 188 210 147 276 164 251 219 218 201 183 196 186 194 196 195 200 202 199 197 199 202 211 217 219 218 219 218
260 327 132 260 211 192 212 194 157 180 222 160 181 194 193 184 194 199 200 199 203 204 199 198 201 206 209 210 213 216 219 221
248 4 206 242 215 195 207 216 200 189 186 179 201 219 204 198 194 203 207 201 206 201 202 204 206 208 211 210 211 216 218 222
180 230 278 266 197 177 170 250 208 222 217 192 207 189 209 208 207 206 205 206 210 202 203 206 210 212 211 214 212 211 213 217
139 180 222 243 300 206 87 257 240 203 196 159 158 159 233 199 210 216 210 207 210 207 208 208 212 214 214 215 212 211 213 214
200 226 282 252 275 140 160 239 244 244 202 168 187 219 228 201 204 215 216 210 212 209 211 211 213 212 216 215 214 209 206 207
148 196 248 339 48 133 303 332 326 325 304 242 243 226 231 221 214 209 213 212 207 209 211 210 213 214 217 212 206 203 202 207
187 204 216 3 339 351 359 335 331 326 321 285 249 233 222 219 214 211 212 210 205 206 208 210 213 216 217 211 202 199 202 206
334 253 261 325 29 352 347 334 325 328 339 296 248 239 213 216 207 203 208 207 198 202 204 210 212 214 213 207 201 201 204 199
272 287 324 176 348 344 338 332 335 329 325 317 279 241 220 207 205 205 206 204 199 199 203 210 211 208 204 204 201 202 202 197
239 272 260 289 308 322 327 324 329 330 319 315 295 244 219 209 207 205 207 202 199 202 203 210 209 205 200 202 204 205 199 197
261 278 290 287 297 297 300 308 320 322 312 301 286 253 232 212 211 210 209 201 202 204 204 211 210 205 202 203 204 205 203 199